Regional Weather Roundup
Issued by NWS Burlington, VT

Current Version | Previous Version | Text Only | Print | Product List | Glossary Off
Versions: 1 2 3 4 5 6 7 8 9 10 11 12 13 14 15 16 17 18 19 20 21 22 23 24 25 26 27 28 29 30 31 32 33 34 35 36 37 38 39 40 41 42 43 44 45 46 47 48 49 50

000
ASUS41 KBTV 291010
RWRBTV
VERMONT REGIONAL WEATHER ROUNDUP
NATIONAL WEATHER SERVICE BURLINGTON VT
600 AM EDT FRI MAY 29 2015

NOTE: "FAIR" INDICATES FEW OR NO CLOUDS BELOW 12,000 FEET WITH NO
SIGNIFICANT WEATHER AND/OR OBSTRUCTIONS TO VISIBILITY.

* THESE REPORTS ARE NOT UNDER NWS QUALITY CONTROL AND/OR DO NOT
  REPORT WEATHER SUCH AS PRECIPITATION AND FOG.

VTZ001>019-291100-
_____VERMONT_____


CITY           SKY/WX    TMP DP  RH WIND       PRES   REMARKS
BURLINGTON     CLOUDY    58  55  90 CALM      30.31R
MONTPELIER     PTSUNNY   54  53  97 CALM      30.35R
MORRISVILLE    MOSUNNY   56  52  86 NW3       30.33R FOG
LYNDONVILLE*   FOG       53  50  90 CALM      30.33R VSB<1/4
MIDDLEBURY*      N/A     54  54 100 CALM      30.32R
RUTLAND*       SUNNY     54  48  82 SE6       30.32R
SPRINGFIELD    SUNNY     53  52  96 CALM      30.31R
HIGHGATE*        N/A     50  50 100 CALM      30.30R FOG
NEWPORT*       FOG       50  50  99 CALM      30.32S VSB 1/4
BENNINGTON     SUNNY     49  47  93 CALM      30.31R
SUTTON*          N/A     50 N/A N/A MISG        N/A

_____LAKE CHAMPLAIN_____


CITY           SKY/WX    TMP DP  RH WIND       PRES   REMARKS

$$

NYZ007-026>031-035-052-083-291100-
_____NORTHERN NEW YORK_____


CITY           SKY/WX    TMP DP  RH WIND       PRES   REMARKS
PLATTSBURGH    SUNNY     54  52  93 CALM      30.31R
SARANAC LAKE   FOG       45  45 100 CALM      30.32R VSB<1/4
MASSENA        MOSUNNY   46  45  96 CALM      30.30S FOG
OGDENSBURG*    FOG       48  46  93 CALM      30.28S VSB 1/2
POTSDAM*       SUNNY     46  46 100 CALM      30.29S FOG
WATERTOWN      SUNNY     48  47  96 E5        30.27S FOG
FT DRUM        SUNNY     53  53 100 SE8       30.27F
ALBANY         MOSUNNY   55  51  86 NW3       30.31R
GLENS FALLS    SUNNY     51  49  92 CALM      30.31R

$$
NHZ002-005-011-291100-
_____NEW HAMPSHIRE_____


CITY           SKY/WX    TMP DP  RH WIND       PRES   REMARKS
LEBANON        SUNNY     52  50  93 CALM      30.29R
KEENE          CLOUDY    52  50  93 CALM      30.30R VSB 3/4
MT WASHINGTON  PTSUNNY   48  30  49 N3          N/A
PLYMOUTH         N/A     58  58 100 CALM      30.28R
WHITEFIELD     MOSUNNY   54  52  93 CALM      30.31R

$$

_____REGIONAL QUEBEC LOCATIONS_____


CITY           SKY/WX    TMP DP  RH WIND       PRES   REMARKS
MONTREAL       PTSUNNY   52  50  93 CALM      30.31R
QUEBEC CITY    MOSUNNY   50  43  76 N5        30.32R
SHERBROOKE     FOG       48 N/A N/A CALM      30.31R VSB 0

_____REGIONAL ONTARIO LOCATIONS_____


CITY           SKY/WX    TMP DP  RH WIND       PRES   REMARKS
OTTAWA         MOSUNNY   50  48  93 NE7       30.29R

______KEY______
VSB  - VISIBILITY IN MILES
WCI  - WIND CHILL INDEX
HX   - HEAT INDEX
$$



USA.gov is the U.S. government's official web portal to all federal, state and local government web resources and services.